Weather History for Indianapolis, IN

Change the Weather History Date:

Friday, June 21, 2013

  Actual Average Record
Temperature  
Mean Temperature 77 °F 74 °F  
Max Temperature 88 °F 84 °F 98 °F (1988)
Min Temperature 65 °F 64 °F 41 °F (1992)
Degree Days  
Heating Degree Days 0 0  
Month to date heating degree days 9 13  
Since 1 June heating degree days 9 13  
Since 1 July heating degree days 5405 5375  
Cooling Degree Days 12 9  
Month to date cooling degree days 128 140  
Year to date cooling degree days 257 224  
Since 1 June cooling degree days 128 140  
Growing Degree Days 26 (Base 50)    
Moisture  
Dew Point 61 °F    
Average Humidity 55    
Maximum Humidity 73    
Minimum Humidity 37    
Precipitation  
Precipitation 0.00 in 0.14 in 1.95 in (2010)
Month to date precipitation 1.52 2.95  
Year to date precipitation 23.35 20.35  
Snow  
Snow 0.00 in 0.00 in T in (1995)
Month to date snowfall 0.0 0.0  
Since 1 June snowfall 0.0 0.0  
Since 1 July snowfall 34.5 25.9  
Snow Depth 0.00 in    
Sea Level Pressure  
Sea Level Pressure 30.13 in    
Wind  
Wind Speed 7 mph (SSE)    
Max Wind Speed 16 mph    
Max Gust Speed 21 mph    
Visibility 10 miles    
Events      
T = Trace of Precipitation, MM = Missing Value Source: NWS Daily Summary

Daily Weather History Graph

Daily Weather History Graph

Search for Another Location

Airport:

Trip Planner

Search our weather history database for the weather conditions in past years. The results will help you decide how hot, cold, wet, or windy it might be!

Date:

Astronomy

Jun. 21, 2013 Rise Set
Actual Time 6:17 AM EDT 9:16 PM EDT
Civil Twilight 5:44 AM EDT 9:49 PM EDT
Nautical Twilight 5:03 AM EDT 10:30 PM EDT
Astronomical Twilight 4:15 AM EDT 11:18 PM EDT
Moon 7:26 PM EDT (6/21) 4:32 AM EDT (6/21)
Length of Visible Light 16h 04m
Length of Day
14h 59m
Waxing Gibbous, 95% of the Moon is Illuminated
Jun 21
Waxing Gibbous
Jun 23
Full
Jun 30
Last Quarter
Jul 8
New
Jul 15
First Quarter

Hourly Weather History & Observations

Time (EDT) Temp. Heat Index Dew Point Humidity Pressure Visibility Wind Dir Wind Speed Gust Speed Precip Events Conditions
12:54 AM 71.1 °F - 57.0 °F 61% 30.14 in 10.0 mi SE 6.9 mph - N/A   Clear
1:54 AM 70.0 °F - 57.0 °F 63% 30.15 in 10.0 mi SE 4.6 mph - N/A   Clear
2:54 AM 68.0 °F - 57.9 °F 70% 30.15 in 10.0 mi SE 5.8 mph - N/A   Clear
3:54 AM 68.0 °F - 57.0 °F 68% 30.14 in 10.0 mi ESE 4.6 mph - N/A   Clear
4:54 AM 69.1 °F - 57.0 °F 65% 30.14 in 10.0 mi SE 8.1 mph - N/A   Clear
5:54 AM 66.0 °F - 57.0 °F 73% 30.15 in 10.0 mi ESE 6.9 mph - N/A   Clear
6:54 AM 66.0 °F - 57.9 °F 75% 30.16 in 10.0 mi ESE 3.5 mph - N/A   Clear
7:54 AM 69.1 °F - 59.0 °F 70% 30.17 in 10.0 mi SE 6.9 mph - N/A   Partly Cloudy
8:54 AM 73.0 °F - 60.1 °F 64% 30.17 in 10.0 mi SSE 5.8 mph - N/A   Partly Cloudy
9:54 AM 77.0 °F - 62.1 °F 60% 30.18 in 10.0 mi ESE 3.5 mph - N/A   Partly Cloudy
10:54 AM 80.1 °F 81.1 °F 61.0 °F 52% 30.15 in 10.0 mi SSE 8.1 mph - N/A   Partly Cloudy
11:54 AM 82.9 °F 83.3 °F 61.0 °F 47% 30.17 in 10.0 mi South 9.2 mph - N/A   Partly Cloudy
12:54 PM 86.0 °F 85.4 °F 59.0 °F 40% 30.17 in 10.0 mi South 11.5 mph - N/A   Scattered Clouds
1:54 PM 86.0 °F 85.0 °F 57.9 °F 38% 30.14 in 10.0 mi SSE 8.1 mph - N/A   Scattered Clouds
2:54 PM 87.1 °F 87.0 °F 61.0 °F 41% 30.14 in 10.0 mi SSW 6.9 mph 17.3 mph N/A   Scattered Clouds
3:54 PM 87.1 °F 87.5 °F 62.1 °F 43% 30.11 in 10.0 mi South 10.4 mph 16.1 mph N/A   Mostly Cloudy
4:54 PM 87.1 °F 87.5 °F 62.1 °F 43% 30.10 in 10.0 mi South 5.8 mph - N/A   Mostly Cloudy
5:54 PM 86.0 °F 86.3 °F 62.1 °F 44% 30.10 in 10.0 mi SSW 5.8 mph - N/A   Mostly Cloudy
6:54 PM 84.9 °F 85.9 °F 63.0 °F 48% 30.11 in 10.0 mi SW 5.8 mph - N/A   Mostly Cloudy
7:54 PM 82.0 °F 83.4 °F 64.0 °F 54% 30.11 in 10.0 mi SSW 6.9 mph - N/A   Overcast
8:54 PM 79.0 °F - 64.9 °F 62% 30.11 in 10.0 mi North 11.5 mph - N/A   Overcast
9:54 PM 77.0 °F - 64.0 °F 64% 30.02 in 10.0 mi SSE 11.5 mph - N/A   Mostly Cloudy
10:54 PM 78.1 °F - 64.9 °F 64% 30.02 in 10.0 mi South 16.1 mph - N/A   Mostly Cloudy
11:54 PM 77.0 °F - 66.0 °F 69% 30.09 in 10.0 mi West 4.6 mph - N/A   Mostly Cloudy